sat.trackr.live / text

‹ back to catalog

STARLINK-30181

NORAD 57444 · 2023-105Q

PAYLOAD ACTIVE UNKNOWN

§ Identity

Operator
Country
US
Launch date
2023-07-24
Launch site
AFETR
Launch vehicle
Mass (kg)
RCS (m²)

Purposes: comms

External: N2YO · Heavens-Above · Gunter

§ Orbital elements

Epoch: 2026-09-19T23:01:03.050112Z

Period
94.27 min
Inclination
43.0018°
Eccentricity
0.0001508
Mean motion
15.27578792 rev/d
Perigee alt
482.0 km
Apogee alt
484.1 km
Semi-major
6,861.2 km
B*
4.6363e-5
RAAN
246.0583°
Arg perigee
270.7581°
Mean anomaly
89.3098°
Rev number
17,531

§ Raw data

STARLINK-301811 57444U 23105Q   26262.95906308  .00001014  00000+0  46363-4 0  99942 57444  43.0018 246.0583 0001508 270.7581  89.3098 15.27578792175311

JSON: /api/v1/satellites/57444 · /tle

For live sub-satellite position, see the globe view (requires WebGL).

§ Visibility from observer

Set your observer location to see the next 7 days of passes ≥ 10°. The values pass through the URL so the page stays shareable.

No JS? Fill the form by hand. The geolocation button needs JavaScript.